PRIVATE WETTERSTATION BILLIGHEIM-ALLFELD                       ZURCK
Wetterdaten: Mittwoch, 19.04.2017
Datum Zeit Temp. A. Temp. A. min Temp. A. max Feuchte A. Luftdruck Regen Wind Richtung Richtung Sonnenschein ET Solar Taupunkt Windchill Windben Empfang
19.04.2017 00:00 1,1 C 1,1 C 1,3 C 91 % 1027,0 hPa 0,0 l/m 0,0 km/h (0 Bft) N 360 0 min 0,000 mm 0 W/m -0,2 C 1,1 C 4,8 km/h (1 Bft) 100 %
19.04.2017 00:10 1,0 C 1,0 C 1,1 C 90 % 1026,9 hPa 0,0 l/m 0,0 km/h (0 Bft) N 0 0 min 0,000 mm 0 W/m -0,5 C 1,0 C 0,0 km/h (0 Bft) 99 %
19.04.2017 00:20 0,9 C 0,9 C 1,0 C 91 % 1026,9 hPa 0,0 l/m 0,0 km/h (0 Bft) N 0 0 min 0,000 mm 0 W/m -0,4 C 0,9 C 0,0 km/h (0 Bft) 90 %
19.04.2017 00:30 0,9 C 0,8 C 0,9 C 91 % 1027,1 hPa 0,0 l/m 0,0 km/h (0 Bft) N 360 0 min 0,000 mm 0 W/m -0,4 C 0,9 C 1,6 km/h (1 Bft) 100 %
19.04.2017 00:40 0,9 C 0,9 C 1,0 C 91 % 1027,2 hPa 0,0 l/m 0,0 km/h (0 Bft) N 0 0 min 0,000 mm 0 W/m -0,4 C 0,9 C 0,0 km/h (0 Bft) 100 %
19.04.2017 00:50 0,9 C 0,9 C 1,0 C 91 % 1027,1 hPa 0,0 l/m 0,0 km/h (0 Bft) N 360 0 min 0,000 mm 0 W/m -0,4 C 0,9 C 3,2 km/h (1 Bft) 98 %
19.04.2017 01:00 0,9 C 0,8 C 0,9 C 91 % 1027,2 hPa 0,0 l/m 0,0 km/h (0 Bft) N 0 0 min 0,000 mm 0 W/m -0,4 C 0,9 C 0,0 km/h (0 Bft) 100 %
19.04.2017 01:10 0,9 C 0,9 C 0,9 C 91 % 1027,2 hPa 0,0 l/m 0,0 km/h (0 Bft) N 0 0 min 0,000 mm 0 W/m -0,4 C 0,9 C 0,0 km/h (0 Bft) 100 %
19.04.2017 01:20 0,8 C 0,8 C 0,9 C 91 % 1027,3 hPa 0,0 l/m 0,0 km/h (0 Bft) N 360 0 min 0,000 mm 0 W/m -0,5 C 0,8 C 1,6 km/h (1 Bft) 100 %
19.04.2017 01:30 0,8 C 0,8 C 0,8 C 91 % 1027,3 hPa 0,0 l/m 0,0 km/h (0 Bft) N 360 0 min 0,000 mm 0 W/m -0,5 C 0,8 C 4,8 km/h (1 Bft) 100 %
19.04.2017 01:40 0,6 C 0,6 C 0,8 C 91 % 1027,4 hPa 0,0 l/m 0,0 km/h (0 Bft) N 0 0 min 0,000 mm 0 W/m -0,7 C 0,6 C 0,0 km/h (0 Bft) 100 %
19.04.2017 01:50 0,3 C 0,3 C 0,6 C 91 % 1027,4 hPa 0,0 l/m 0,0 km/h (0 Bft) N 0 0 min 0,000 mm 0 W/m -1,0 C 0,3 C 0,0 km/h (0 Bft) 90 %
19.04.2017 02:00 0,1 C 0,1 C 0,3 C 91 % 1027,3 hPa 0,0 l/m 0,0 km/h (0 Bft) N 0 0 min 0,000 mm 0 W/m -1,2 C 0,1 C 0,0 km/h (0 Bft) 100 %
19.04.2017 02:10 -0,1 C -0,1 C 0,1 C 91 % 1027,3 hPa 0,0 l/m 0,0 km/h (0 Bft) N 0 0 min 0,000 mm 0 W/m -1,4 C -0,1 C 0,0 km/h (0 Bft) 100 %
19.04.2017 02:20 -0,3 C -0,3 C -0,1 C 91 % 1027,2 hPa 0,0 l/m 0,0 km/h (0 Bft) N 0 0 min 0,000 mm 0 W/m -1,6 C -0,3 C 0,0 km/h (0 Bft) 100 %
19.04.2017 02:30 -0,4 C -0,4 C -0,3 C 91 % 1027,2 hPa 0,0 l/m 0,0 km/h (0 Bft) N 0 0 min 0,000 mm 0 W/m -1,7 C -0,4 C 0,0 km/h (0 Bft) 100 %
19.04.2017 02:40 -0,4 C -0,4 C -0,4 C 91 % 1027,2 hPa 0,0 l/m 0,0 km/h (0 Bft) N 0 0 min 0,000 mm 0 W/m -1,7 C -0,4 C 0,0 km/h (0 Bft) 100 %
19.04.2017 02:50 -0,4 C -0,4 C -0,4 C 91 % 1027,3 hPa 0,0 l/m 0,0 km/h (0 Bft) N 360 0 min 0,000 mm 0 W/m -1,7 C -0,4 C 1,6 km/h (1 Bft) 100 %
19.04.2017 03:00 -0,4 C -0,4 C -0,4 C 91 % 1027,3 hPa 0,0 l/m 0,0 km/h (0 Bft) N 0 0 min 0,000 mm 0 W/m -1,7 C -0,4 C 0,0 km/h (0 Bft) 95 %
19.04.2017 03:10 -0,6 C -0,6 C -0,4 C 91 % 1027,5 hPa 0,0 l/m 0,0 km/h (0 Bft) N 0 0 min 0,000 mm 0 W/m -1,9 C -0,6 C 0,0 km/h (0 Bft) 95 %
19.04.2017 03:20 -0,7 C -0,7 C -0,6 C 91 % 1027,4 hPa 0,0 l/m 0,0 km/h (0 Bft) N 0 0 min 0,000 mm 0 W/m -2,0 C -0,7 C 0,0 km/h (0 Bft) 100 %
19.04.2017 03:30 -0,7 C -0,7 C -0,7 C 91 % 1027,4 hPa 0,0 l/m 0,0 km/h (0 Bft) N 0 0 min 0,000 mm 0 W/m -2,0 C -0,7 C 0,0 km/h (0 Bft) 100 %
19.04.2017 03:40 -0,7 C -0,7 C -0,7 C 91 % 1027,5 hPa 0,0 l/m 0,0 km/h (0 Bft) N 0 0 min 0,000 mm 0 W/m -2,0 C -0,7 C 0,0 km/h (0 Bft) 100 %
19.04.2017 03:50 -0,8 C -0,8 C -0,7 C 91 % 1027,6 hPa 0,0 l/m 0,0 km/h (0 Bft) N 0 0 min 0,000 mm 0 W/m -2,1 C -0,8 C 0,0 km/h (0 Bft) 100 %
19.04.2017 04:00 -0,8 C -0,8 C -0,8 C 91 % 1027,7 hPa 0,0 l/m 0,0 km/h (0 Bft) N 0 0 min 0,000 mm 0 W/m -2,1 C -0,8 C 0,0 km/h (0 Bft) 100 %
19.04.2017 04:10 -0,7 C -0,8 C -0,7 C 91 % 1027,8 hPa 0,0 l/m 0,0 km/h (0 Bft) N 0 0 min 0,000 mm 0 W/m -2,0 C -0,7 C 0,0 km/h (0 Bft) 100 %
19.04.2017 04:20 -0,6 C -0,7 C -0,6 C 91 % 1027,8 hPa 0,0 l/m 0,0 km/h (0 Bft) N 0 0 min 0,000 mm 0 W/m -1,9 C -0,6 C 0,0 km/h (0 Bft) 90 %
19.04.2017 04:30 -0,6 C -0,6 C -0,6 C 91 % 1027,9 hPa 0,0 l/m 0,0 km/h (0 Bft) N 0 0 min 0,000 mm 0 W/m -1,9 C -0,6 C 0,0 km/h (0 Bft) 100 %
19.04.2017 04:40 -0,4 C -0,6 C -0,4 C 91 % 1027,9 hPa 0,0 l/m 0,0 km/h (0 Bft) N 0 0 min 0,000 mm 0 W/m -1,7 C -0,4 C 0,0 km/h (0 Bft) 100 %
19.04.2017 04:50 -0,3 C -0,4 C -0,3 C 91 % 1027,9 hPa 0,0 l/m 0,0 km/h (0 Bft) N 0 0 min 0,000 mm 0 W/m -1,6 C -0,3 C 0,0 km/h (0 Bft) 99 %
19.04.2017 05:00 -0,1 C -0,3 C -0,1 C 91 % 1028,0 hPa 0,0 l/m 0,0 km/h (0 Bft) N 0 0 min 0,000 mm 0 W/m -1,4 C -0,1 C 0,0 km/h (0 Bft) 100 %
19.04.2017 05:10 -0,1 C -0,1 C 0,0 C 91 % 1027,9 hPa 0,0 l/m 0,0 km/h (0 Bft) N 0 0 min 0,000 mm 0 W/m -1,4 C -0,1 C 0,0 km/h (0 Bft) 100 %
19.04.2017 05:20 0,0 C -0,1 C 0,1 C 91 % 1028,0 hPa 0,0 l/m 0,0 km/h (0 Bft) N 0 0 min 0,000 mm 0 W/m -1,3 C 0,0 C 0,0 km/h (0 Bft) 100 %
19.04.2017 05:30 0,1 C 0,0 C 0,1 C 91 % 1028,0 hPa 0,0 l/m 0,0 km/h (0 Bft) N 0 0 min 0,000 mm 0 W/m -1,2 C 0,1 C 0,0 km/h (0 Bft) 100 %
19.04.2017 05:40 0,2 C 0,1 C 0,2 C 91 % 1028,0 hPa 0,0 l/m 0,0 km/h (0 Bft) N 0 0 min 0,000 mm 0 W/m -1,1 C 0,2 C 0,0 km/h (0 Bft) 100 %
19.04.2017 05:50 0,2 C 0,2 C 0,2 C 91 % 1028,1 hPa 0,0 l/m 0,0 km/h (0 Bft) N 360 0 min 0,000 mm 0 W/m -1,1 C 0,2 C 3,2 km/h (1 Bft) 100 %
19.04.2017 06:00 0,1 C 0,1 C 0,2 C 91 % 1028,1 hPa 0,0 l/m 0,0 km/h (0 Bft) N 0 0 min 0,000 mm 0 W/m -1,2 C 0,1 C 0,0 km/h (0 Bft) 100 %
19.04.2017 06:10 0,1 C 0,1 C 0,1 C 91 % 1028,1 hPa 0,0 l/m 0,0 km/h (0 Bft) N 0 0 min 0,000 mm 0 W/m -1,2 C 0,1 C 0,0 km/h (0 Bft) 100 %
19.04.2017 06:20 -0,1 C -0,1 C 0,1 C 91 % 1028,2 hPa 0,0 l/m 0,0 km/h (0 Bft) N 360 0 min 0,000 mm 0 W/m -1,4 C -0,1 C 1,6 km/h (1 Bft) 100 %
19.04.2017 06:30 -0,2 C -0,2 C -0,1 C 91 % 1028,3 hPa 0,0 l/m 0,0 km/h (0 Bft) N 360 0 min 0,000 mm 5 W/m -1,5 C -0,2 C 1,6 km/h (1 Bft) 100 %
19.04.2017 06:40 -0,2 C -0,2 C -0,2 C 91 % 1028,3 hPa 0,0 l/m 0,0 km/h (0 Bft) N 360 0 min 0,000 mm 9 W/m -1,5 C -0,2 C 1,6 km/h (1 Bft) 100 %
19.04.2017 06:50 0,0 C -0,2 C 0,0 C 91 % 1028,4 hPa 0,0 l/m 0,0 km/h (0 Bft) N 360 0 min 0,000 mm 18 W/m -1,3 C 0,0 C 4,8 km/h (1 Bft) 100 %
19.04.2017 07:00 0,2 C 0,0 C 0,2 C 91 % 1028,6 hPa 0,0 l/m 0,0 km/h (0 Bft) N-NW 337 0 min 0,000 mm 25 W/m -1,1 C 0,2 C 19,3 km/h (3 Bft) 100 %
19.04.2017 07:10 0,4 C 0,2 C 0,4 C 91 % 1028,6 hPa 0,0 l/m 0,0 km/h (0 Bft) N 0 0 min 0,000 mm 23 W/m -0,9 C 0,4 C 0,0 km/h (0 Bft) 100 %
19.04.2017 07:20 0,6 C 0,4 C 0,6 C 91 % 1028,6 hPa 0,0 l/m 0,0 km/h (0 Bft) N 0 0 min 0,000 mm 18 W/m -0,7 C 0,6 C 0,0 km/h (0 Bft) 100 %
19.04.2017 07:30 0,7 C 0,6 C 0,7 C 91 % 1028,8 hPa 0,0 l/m 0,0 km/h (0 Bft) N-NW 337 0 min 0,000 mm 23 W/m -0,6 C 0,7 C 6,4 km/h (2 Bft) 100 %
19.04.2017 07:40 0,8 C 0,7 C 0,8 C 91 % 1028,9 hPa 0,0 l/m 0,0 km/h (0 Bft) N 0 0 min 0,000 mm 25 W/m -0,5 C 0,8 C 0,0 km/h (0 Bft) 100 %
19.04.2017 07:50 0,9 C 0,8 C 0,9 C 91 % 1029,0 hPa 0,0 l/m 0,0 km/h (0 Bft) N-NW 337 0 min 0,000 mm 23 W/m -0,4 C 0,9 C 3,2 km/h (1 Bft) 100 %
19.04.2017 08:00 1,0 C 0,9 C 1,0 C 91 % 1029,1 hPa 0,0 l/m 0,0 km/h (0 Bft) N 360 0 min 0,000 mm 35 W/m -0,3 C 1,0 C 4,8 km/h (1 Bft) 100 %
19.04.2017 08:10 1,0 C 1,0 C 1,0 C 91 % 1029,1 hPa 0,0 l/m 0,0 km/h (0 Bft) N-NO 22 0 min 0,000 mm 39 W/m -0,3 C 1,0 C 4,8 km/h (1 Bft) 100 %
19.04.2017 08:20 1,0 C 1,0 C 1,0 C 91 % 1029,2 hPa 0,0 l/m 0,0 km/h (0 Bft) N 0 0 min 0,000 mm 62 W/m -0,3 C 1,0 C 0,0 km/h (0 Bft) 100 %
19.04.2017 08:30 1,0 C 0,9 C 1,0 C 91 % 1029,3 hPa 0,0 l/m 1,6 km/h (1 Bft) N 360 0 min 0,000 mm 79 W/m -0,3 C 1,0 C 17,7 km/h (3 Bft) 100 %
19.04.2017 08:40 1,1 C 1,0 C 1,1 C 91 % 1029,5 hPa 0,2 l/m 0,0 km/h (0 Bft) N-NO 22 0 min 0,000 mm 128 W/m -0,2 C 1,1 C 6,4 km/h (2 Bft) 100 %
19.04.2017 08:50 1,4 C 1,1 C 1,4 C 91 % 1029,5 hPa 0,2 l/m 0,0 km/h (0 Bft) NO 45 10 min 0,000 mm 234 W/m 0,1 C 1,4 C 8,0 km/h (2 Bft) 100 %
19.04.2017 09:00 1,4 C 1,4 C 1,4 C 91 % 1029,6 hPa 0,0 l/m 1,6 km/h (1 Bft) NO 45 10 min 0,025 mm 234 W/m 0,1 C 1,4 C 6,4 km/h (2 Bft) 100 %
19.04.2017 09:10 1,6 C 1,4 C 1,6 C 91 % 1029,6 hPa 0,0 l/m 1,6 km/h (1 Bft) NO 45 10 min 0,000 mm 193 W/m 0,3 C 1,6 C 9,7 km/h (2 Bft) 100 %
19.04.2017 09:20 1,7 C 1,6 C 1,7 C 91 % 1029,8 hPa 0,0 l/m 0,0 km/h (0 Bft) NO 45 10 min 0,000 mm 230 W/m 0,4 C 1,7 C 4,8 km/h (1 Bft) 100 %
19.04.2017 09:30 1,9 C 1,7 C 1,9 C 91 % 1029,9 hPa 0,0 l/m 0,0 km/h (0 Bft) NO 45 10 min 0,000 mm 390 W/m 0,6 C 1,9 C 4,8 km/h (1 Bft) 100 %
19.04.2017 09:40 2,6 C 2,0 C 2,6 C 91 % 1029,9 hPa 0,0 l/m 0,0 km/h (0 Bft) NO 45 10 min 0,000 mm 468 W/m 1,3 C 2,6 C 6,4 km/h (2 Bft) 100 %
19.04.2017 09:50 2,7 C 2,6 C 2,8 C 90 % 1029,9 hPa 0,0 l/m 3,2 km/h (1 Bft) N-NO 22 10 min 0,000 mm 443 W/m 1,2 C 2,7 C 9,7 km/h (2 Bft) 100 %
19.04.2017 10:00 2,6 C 2,6 C 2,7 C 88 % 1030,0 hPa 0,0 l/m 0,0 km/h (0 Bft) N-NO 22 10 min 0,102 mm 285 W/m 0,8 C 2,6 C 4,8 km/h (1 Bft) 100 %
19.04.2017 10:10 2,5 C 2,5 C 2,6 C 87 % 1030,1 hPa 0,0 l/m 1,6 km/h (1 Bft) NO 45 10 min 0,000 mm 207 W/m 0,6 C 2,5 C 9,7 km/h (2 Bft) 100 %
19.04.2017 10:20 2,7 C 2,5 C 2,7 C 87 % 1030,2 hPa 0,0 l/m 0,0 km/h (0 Bft) N-NO 22 10 min 0,000 mm 364 W/m 0,8 C 2,7 C 1,6 km/h (1 Bft) 100 %
19.04.2017 10:30 3,0 C 2,7 C 3,0 C 86 % 1030,4 hPa 0,0 l/m 1,6 km/h (1 Bft) N-NO 22 10 min 0,000 mm 390 W/m 0,9 C 3,0 C 6,4 km/h (2 Bft) 100 %
19.04.2017 10:40 3,2 C 3,1 C 3,2 C 84 % 1030,4 hPa 0,0 l/m 1,6 km/h (1 Bft) N-NO 22 10 min 0,000 mm 283 W/m 0,8 C 3,2 C 6,4 km/h (2 Bft) 100 %
19.04.2017 10:50 3,3 C 3,2 C 3,3 C 83 % 1030,4 hPa 0,0 l/m 1,6 km/h (1 Bft) NO 45 10 min 0,000 mm 297 W/m 0,7 C 3,3 C 6,4 km/h (2 Bft) 100 %
19.04.2017 11:00 3,6 C 3,3 C 3,6 C 81 % 1030,5 hPa 0,0 l/m 1,6 km/h (1 Bft) N-NO 22 10 min 0,102 mm 782 W/m 0,7 C 3,6 C 12,9 km/h (3 Bft) 100 %
19.04.2017 11:10 4,6 C 3,6 C 4,6 C 80 % 1030,5 hPa 0,0 l/m 1,6 km/h (1 Bft) NO 45 10 min 0,000 mm 751 W/m 1,5 C 4,6 C 8,0 km/h (2 Bft) 100 %
19.04.2017 11:20 5,6 C 4,6 C 5,6 C 74 % 1030,5 hPa 0,0 l/m 1,6 km/h (1 Bft) NO 45 10 min 0,000 mm 956 W/m 1,3 C 5,6 C 8,0 km/h (2 Bft) 100 %
19.04.2017 11:30 5,9 C 5,6 C 5,9 C 77 % 1030,6 hPa 0,0 l/m 1,6 km/h (1 Bft) NO 45 10 min 0,000 mm 990 W/m 2,2 C 5,9 C 9,7 km/h (2 Bft) 100 %
19.04.2017 11:40 6,1 C 5,9 C 6,1 C 70 % 1030,7 hPa 0,0 l/m 3,2 km/h (1 Bft) NO 45 10 min 0,000 mm 874 W/m 1,0 C 6,1 C 11,3 km/h (2 Bft) 100 %
19.04.2017 11:50 5,9 C 5,9 C 6,1 C 67 % 1030,7 hPa 0,0 l/m 1,6 km/h (1 Bft) N-NO 22 10 min 0,000 mm 905 W/m 0,3 C 5,9 C 14,5 km/h (3 Bft) 100 %
19.04.2017 12:00 5,2 C 5,2 C 5,9 C 71 % 1030,7 hPa 0,0 l/m 0,0 km/h (0 Bft) NO 45 10 min 0,254 mm 246 W/m 0,4 C 5,2 C 3,2 km/h (1 Bft) 100 %
19.04.2017 12:10 5,8 C 5,1 C 5,8 C 76 % 1030,6 hPa 0,0 l/m 1,6 km/h (1 Bft) N 360 10 min 0,000 mm 997 W/m 1,9 C 5,8 C 8,0 km/h (2 Bft) 100 %
19.04.2017 12:20 6,5 C 5,8 C 6,5 C 65 % 1030,6 hPa 0,0 l/m 3,2 km/h (1 Bft) NO 45 10 min 0,000 mm 1090 W/m 0,4 C 6,5 C 11,3 km/h (2 Bft) 100 %
19.04.2017 12:30 6,2 C 6,2 C 6,5 C 64 % 1030,7 hPa 0,0 l/m 1,6 km/h (1 Bft) NO 45 10 min 0,000 mm 1016 W/m -0,1 C 6,2 C 9,7 km/h (2 Bft) 100 %
19.04.2017 12:40 5,8 C 5,8 C 6,2 C 64 % 1030,7 hPa 0,0 l/m 0,0 km/h (0 Bft) NO 45 10 min 0,000 mm 898 W/m -0,5 C 5,8 C 4,8 km/h (1 Bft) 99 %
19.04.2017 12:50 6,5 C 5,8 C 6,5 C 65 % 1030,7 hPa 0,0 l/m 0,0 km/h (0 Bft) NO 45 10 min 0,000 mm 1130 W/m 0,4 C 6,5 C 6,4 km/h (2 Bft) 100 %
19.04.2017 13:00 7,1 C 6,5 C 7,1 C 63 % 1030,6 hPa 0,0 l/m 1,6 km/h (1 Bft) NO 45 10 min 0,305 mm 1025 W/m 0,5 C 7,1 C 11,3 km/h (2 Bft) 100 %
19.04.2017 13:10 7,0 C 7,0 C 7,2 C 60 % 1030,8 hPa 0,0 l/m 1,6 km/h (1 Bft) NO 45 10 min 0,000 mm 538 W/m -0,2 C 7,0 C 14,5 km/h (3 Bft) 99 %
19.04.2017 13:20 6,1 C 6,1 C 7,0 C 62 % 1031,0 hPa 0,0 l/m 1,6 km/h (1 Bft) NO 45 10 min 0,000 mm 199 W/m -0,6 C 6,1 C 8,0 km/h (2 Bft) 100 %
19.04.2017 13:30 5,7 C 5,7 C 6,1 C 62 % 1031,0 hPa 0,0 l/m 0,0 km/h (0 Bft) N-NO 22 10 min 0,000 mm 269 W/m -1,0 C 5,7 C 6,4 km/h (2 Bft) 100 %
19.04.2017 13:40 5,6 C 5,5 C 5,7 C 66 % 1031,1 hPa 0,0 l/m 0,0 km/h (0 Bft) N-NO 22 10 min 0,000 mm 427 W/m -0,2 C 5,6 C 8,0 km/h (2 Bft) 100 %
19.04.2017 13:50 5,8 C 5,6 C 5,8 C 66 % 1031,1 hPa 0,0 l/m 1,6 km/h (1 Bft) N-NO 22 10 min 0,000 mm 496 W/m -0,0 C 5,8 C 14,5 km/h (3 Bft) 94 %
19.04.2017 14:00 6,5 C 5,8 C 6,5 C 65 % 1031,1 hPa 0,0 l/m 1,6 km/h (1 Bft) NW 315 10 min 0,178 mm 863 W/m 0,4 C 6,5 C 14,5 km/h (3 Bft) 96 %
19.04.2017 14:10 6,7 C 6,5 C 6,8 C 58 % 1031,0 hPa 0,0 l/m 1,6 km/h (1 Bft) N-NW 337 10 min 0,000 mm 383 W/m -1,0 C 6,7 C 17,7 km/h (3 Bft) 100 %
19.04.2017 14:20 6,2 C 6,2 C 6,7 C 59 % 1031,0 hPa 0,0 l/m 3,2 km/h (1 Bft) N-NO 22 10 min 0,000 mm 385 W/m -1,2 C 6,2 C 20,9 km/h (4 Bft) 100 %
19.04.2017 14:30 6,4 C 6,2 C 6,4 C 61 % 1031,2 hPa 0,0 l/m 3,2 km/h (1 Bft) N-NW 337 10 min 0,000 mm 413 W/m -0,6 C 6,4 C 14,5 km/h (3 Bft) 100 %
19.04.2017 14:40 6,2 C 6,2 C 6,4 C 60 % 1031,3 hPa 0,0 l/m 1,6 km/h (1 Bft) NO 45 10 min 0,000 mm 454 W/m -1,0 C 6,2 C 12,9 km/h (3 Bft) 100 %
19.04.2017 14:50 6,4 C 6,2 C 6,5 C 60 % 1031,3 hPa 0,0 l/m 0,0 km/h (0 Bft) NO 45 10 min 0,000 mm 1025 W/m -0,8 C 6,4 C 8,0 km/h (2 Bft) 100 %
19.04.2017 15:00 6,4 C 6,4 C 6,5 C 58 % 1031,2 hPa 0,0 l/m 1,6 km/h (1 Bft) NO 45 10 min 0,178 mm 455 W/m -1,2 C 6,4 C 9,7 km/h (2 Bft) 100 %
19.04.2017 15:10 6,6 C 6,3 C 6,6 C 61 % 1031,1 hPa 0,0 l/m 3,2 km/h (1 Bft) NO 45 10 min 0,000 mm 432 W/m -0,4 C 6,6 C 30,6 km/h (5 Bft) 100 %
19.04.2017 15:20 5,7 C 5,7 C 6,6 C 63 % 1031,4 hPa 0,0 l/m 1,6 km/h (1 Bft) NO 45 10 min 0,000 mm 211 W/m -0,8 C 5,7 C 8,0 km/h (2 Bft) 100 %
19.04.2017 15:30 5,4 C 5,4 C 5,7 C 61 % 1031,2 hPa 0,0 l/m 0,0 km/h (0 Bft) NO 45 10 min 0,000 mm 257 W/m -1,5 C 5,4 C 1,6 km/h (1 Bft) 100 %
19.04.2017 15:40 6,1 C 5,4 C 6,1 C 61 % 1031,3 hPa 0,0 l/m 1,6 km/h (1 Bft) NO 45 10 min 0,000 mm 264 W/m -0,8 C 6,1 C 14,5 km/h (3 Bft) 100 %
19.04.2017 15:50 6,8 C 6,1 C 6,8 C 66 % 1031,2 hPa 0,0 l/m 1,6 km/h (1 Bft) N-NW 337 10 min 0,000 mm 348 W/m 0,9 C 6,8 C 24,1 km/h (4 Bft) 100 %
19.04.2017 16:00 5,6 C 5,6 C 6,9 C 65 % 1031,5 hPa 0,0 l/m 1,6 km/h (1 Bft) NO 45 0 min 0,102 mm 151 W/m -0,4 C 5,6 C 33,8 km/h (5 Bft) 100 %
19.04.2017 16:10 4,6 C 4,6 C 5,6 C 68 % 1031,4 hPa 0,0 l/m 0,0 km/h (0 Bft) NO 45 10 min 0,000 mm 220 W/m -0,8 C 4,6 C 9,7 km/h (2 Bft) 100 %
19.04.2017 16:20 4,5 C 4,4 C 4,6 C 67 % 1031,4 hPa 0,0 l/m 0,0 km/h (0 Bft) N 0 10 min 0,000 mm 267 W/m -1,1 C 4,5 C 0,0 km/h (0 Bft) 100 %
19.04.2017 16:30 4,7 C 4,5 C 4,7 C 67 % 1031,4 hPa 0,0 l/m 0,0 km/h (0 Bft) N-NO 22 10 min 0,000 mm 260 W/m -0,9 C 4,7 C 8,0 km/h (2 Bft) 100 %
19.04.2017 16:40 5,1 C 4,7 C 5,1 C 66 % 1031,4 hPa 0,0 l/m 1,6 km/h (1 Bft) NW 315 10 min 0,000 mm 209 W/m -0,7 C 5,1 C 12,9 km/h (3 Bft) 100 %
19.04.2017 16:50 5,5 C 5,1 C 5,5 C 62 % 1031,3 hPa 0,0 l/m 0,0 km/h (0 Bft) N-NO 22 10 min 0,000 mm 279 W/m -1,2 C 5,5 C 6,4 km/h (2 Bft) 100 %
19.04.2017 17:00 5,4 C 5,1 C 5,8 C 65 % 1031,5 hPa 0,0 l/m 6,7 km/h (2 Bft) NO 39 0 min 0,075 mm 107 W/m -0,6 C 5,2 C 11,3 km/h (2 Bft) 100 %
19.04.2017 17:10 4,4 C 4,4 C 5,4 C 64 % 1031,6 hPa 0,0 l/m 1,8 km/h (1 Bft) NO 45 0 min 0,000 mm 111 W/m -1,8 C 4,4 C 6,4 km/h (2 Bft) 100 %
19.04.2017 17:20 4,0 C 4,0 C 4,4 C 64 % 1031,6 hPa 0,0 l/m 1,0 km/h (0 Bft) N 360 0 min 0,000 mm 130 W/m -2,2 C 4,0 C 17,7 km/h (3 Bft) 100 %
19.04.2017 17:30 3,9 C 3,9 C 4,0 C 66 % 1031,6 hPa 0,0 l/m 0,3 km/h (0 Bft) N-NO 32 0 min 0,000 mm 141 W/m -1,9 C 3,9 C 8,0 km/h (2 Bft) 100 %
19.04.2017 17:40 4,1 C 3,9 C 4,1 C 66 % 1031,6 hPa 0,0 l/m 0,0 km/h (0 Bft) N-NO 30 0 min 0,000 mm 135 W/m -1,7 C 4,1 C 0,0 km/h (0 Bft) 100 %
19.04.2017 17:50 4,2 C 4,1 C 4,2 C 65 % 1031,7 hPa 0,0 l/m 0,0 km/h (0 Bft) N 5 0 min 0,000 mm 76 W/m -1,8 C 4,2 C 0,0 km/h (0 Bft) 99 %
19.04.2017 18:00 4,3 C 4,2 C 4,3 C 67 % 1031,7 hPa 0,0 l/m 0,0 km/h (0 Bft) N 5 0 min 0,000 mm 63 W/m -1,3 C 4,3 C 0,0 km/h (0 Bft) 100 %
19.04.2017 18:10 4,5 C 4,3 C 4,5 C 61 % 1031,5 hPa 0,0 l/m 0,7 km/h (0 Bft) N-NW 334 0 min 0,051 mm 109 W/m -2,4 C 4,5 C 14,5 km/h (3 Bft) 100 %
19.04.2017 18:20 4,9 C 4,5 C 4,9 C 57 % 1031,5 hPa 0,0 l/m 0,5 km/h (0 Bft) N-NO 21 0 min 0,000 mm 116 W/m -2,9 C 4,9 C 6,4 km/h (2 Bft) 100 %
19.04.2017 18:30 5,3 C 4,9 C 5,3 C 58 % 1031,8 hPa 0,0 l/m 1,1 km/h (1 Bft) NO 54 0 min 0,000 mm 134 W/m -2,3 C 5,3 C 14,5 km/h (3 Bft) 100 %
19.04.2017 18:40 5,3 C 5,3 C 5,4 C 58 % 1031,7 hPa 0,0 l/m 0,0 km/h (0 Bft) NO 42 0 min 0,000 mm 102 W/m -2,3 C 5,3 C 3,2 km/h (1 Bft) 100 %
19.04.2017 18:50 5,3 C 5,3 C 5,3 C 55 % 1031,8 hPa 0,0 l/m 1,8 km/h (1 Bft) N-NO 32 0 min 0,000 mm 47 W/m -3,0 C 5,3 C 8,0 km/h (2 Bft) 99 %
19.04.2017 19:00 5,1 C 5,1 C 5,3 C 57 % 1032,0 hPa 0,0 l/m 0,5 km/h (0 Bft) NO 51 0 min 0,000 mm 42 W/m -2,7 C 5,1 C 6,4 km/h (2 Bft) 100 %
19.04.2017 19:10 4,8 C 4,8 C 5,1 C 57 % 1032,0 hPa 0,0 l/m 0,6 km/h (0 Bft) N-NO 33 0 min 0,050 mm 26 W/m -3,0 C 4,8 C 9,7 km/h (2 Bft) 100 %
19.04.2017 19:20 4,4 C 4,4 C 4,8 C 59 % 1032,1 hPa 0,0 l/m 0,0 km/h (0 Bft) N-NO 30 0 min 0,000 mm 26 W/m -2,9 C 4,4 C 1,6 km/h (1 Bft) 100 %
19.04.2017 19:30 4,0 C 4,0 C 4,4 C 60 % 1032,1 hPa 0,0 l/m 0,0 km/h (0 Bft) N-NO 29 0 min 0,000 mm 49 W/m -3,0 C 4,0 C 0,0 km/h (0 Bft) 100 %
19.04.2017 19:40 3,7 C 3,7 C 4,0 C 62 % 1032,2 hPa 0,0 l/m 0,0 km/h (0 Bft) N-NO 27 0 min 0,000 mm 26 W/m -2,9 C 3,7 C 0,0 km/h (0 Bft) 100 %
19.04.2017 19:50 3,6 C 3,6 C 3,7 C 63 % 1032,4 hPa 0,0 l/m 0,1 km/h (0 Bft) NO 38 0 min 0,000 mm 23 W/m -2,8 C 3,6 C 6,4 km/h (2 Bft) 100 %
19.04.2017 20:00 3,6 C 3,6 C 3,7 C 64 % 1032,5 hPa 0,0 l/m 0,0 km/h (0 Bft) NO 38 0 min 0,000 mm 12 W/m -2,6 C 3,6 C 0,0 km/h (0 Bft) 100 %
19.04.2017 20:10 3,6 C 3,6 C 3,6 C 63 % 1032,6 hPa 0,0 l/m 0,0 km/h (0 Bft) NO 37 0 min 0,025 mm 5 W/m -2,8 C 3,6 C 1,6 km/h (1 Bft) 100 %
19.04.2017 20:20 3,5 C 3,4 C 3,6 C 65 % 1032,8 hPa 0,0 l/m 0,1 km/h (0 Bft) NO 38 0 min 0,001 mm 0 W/m -2,4 C 3,5 C 3,2 km/h (1 Bft) 100 %
19.04.2017 20:30 3,3 C 3,3 C 3,5 C 66 % 1032,9 hPa 0,0 l/m 0,2 km/h (0 Bft) NO 37 0 min 0,000 mm 0 W/m -2,4 C 3,3 C 3,2 km/h (1 Bft) 100 %
19.04.2017 20:40 3,1 C 3,1 C 3,3 C 69 % 1033,1 hPa 0,0 l/m 0,0 km/h (0 Bft) NO 37 0 min 0,000 mm 0 W/m -2,0 C 3,1 C 0,0 km/h (0 Bft) 99 %
19.04.2017 20:50 2,6 C 2,6 C 3,1 C 70 % 1033,1 hPa 0,0 l/m 0,0 km/h (0 Bft) NO 37 0 min 0,000 mm 0 W/m -2,3 C 2,6 C 0,0 km/h (0 Bft) 100 %
19.04.2017 21:00 2,1 C 2,1 C 2,6 C 72 % 1033,2 hPa 0,0 l/m 0,0 km/h (0 Bft) NO 37 0 min 0,000 mm 0 W/m -2,4 C 2,1 C 0,0 km/h (0 Bft) 100 %
19.04.2017 21:10 1,6 C 1,6 C 2,1 C 74 % 1033,3 hPa 0,0 l/m 0,0 km/h (0 Bft) N 0 0 min 0,000 mm 0 W/m -2,5 C 1,6 C 0,0 km/h (0 Bft) 92 %
19.04.2017 21:20 1,2 C 1,2 C 1,6 C 75 % 1033,4 hPa 0,0 l/m 0,0 km/h (0 Bft) N 0 0 min 0,000 mm 0 W/m -2,7 C 1,2 C 0,0 km/h (0 Bft) 100 %
19.04.2017 21:30 0,8 C 0,8 C 1,2 C 77 % 1033,7 hPa 0,0 l/m 0,0 km/h (0 Bft) N 0 0 min 0,000 mm 0 W/m -2,8 C 0,8 C 0,0 km/h (0 Bft) 100 %
19.04.2017 21:40 0,5 C 0,5 C 0,8 C 77 % 1033,8 hPa 0,0 l/m 0,0 km/h (0 Bft) N 0 0 min 0,000 mm 0 W/m -3,1 C 0,5 C 0,0 km/h (0 Bft) 100 %
19.04.2017 21:50 0,3 C 0,3 C 0,5 C 79 % 1033,8 hPa 0,0 l/m 0,0 km/h (0 Bft) N 0 0 min 0,000 mm 0 W/m -2,9 C 0,3 C 0,0 km/h (0 Bft) 100 %
19.04.2017 22:00 0,1 C 0,1 C 0,3 C 80 % 1033,9 hPa 0,0 l/m 0,0 km/h (0 Bft) N 0 0 min 0,000 mm 0 W/m -2,9 C 0,1 C 0,0 km/h (0 Bft) 100 %
19.04.2017 22:10 -0,1 C -0,1 C 0,1 C 81 % 1033,9 hPa 0,0 l/m 0,0 km/h (0 Bft) N 0 0 min 0,000 mm 0 W/m -3,0 C -0,1 C 0,0 km/h (0 Bft) 100 %
19.04.2017 22:20 -0,3 C -0,3 C -0,1 C 82 % 1034,0 hPa 0,0 l/m 0,0 km/h (0 Bft) N 0 0 min 0,000 mm 0 W/m -3,0 C -0,3 C 0,0 km/h (0 Bft) 100 %
19.04.2017 22:30 -0,6 C -0,6 C -0,3 C 82 % 1033,9 hPa 0,0 l/m 0,0 km/h (0 Bft) N 0 0 min 0,000 mm 0 W/m -3,3 C -0,6 C 0,0 km/h (0 Bft) 90 %
19.04.2017 22:40 -0,7 C -0,7 C -0,6 C 83 % 1034,1 hPa 0,0 l/m 0,0 km/h (0 Bft) N 0 0 min 0,000 mm 0 W/m -3,2 C -0,7 C 0,0 km/h (0 Bft) 100 %
19.04.2017 22:50 -0,9 C -0,9 C -0,7 C 85 % 1034,0 hPa 0,0 l/m 0,0 km/h (0 Bft) N 0 0 min 0,000 mm 0 W/m -3,1 C -0,9 C 0,0 km/h (0 Bft) 99 %
19.04.2017 23:00 -1,1 C -1,1 C -0,9 C 85 % 1034,1 hPa 0,0 l/m 0,0 km/h (0 Bft) N 0 0 min 0,000 mm 0 W/m -3,3 C -1,1 C 0,0 km/h (0 Bft) 100 %
19.04.2017 23:10 -1,2 C -1,2 C -1,1 C 86 % 1034,3 hPa 0,0 l/m 0,0 km/h (0 Bft) N 0 0 min 0,000 mm 0 W/m -3,2 C -1,2 C 0,0 km/h (0 Bft) 100 %
19.04.2017 23:20 -1,4 C -1,4 C -1,2 C 86 % 1034,3 hPa 0,0 l/m 0,0 km/h (0 Bft) N 0 0 min 0,000 mm 0 W/m -3,4 C -1,4 C 0,0 km/h (0 Bft) 100 %
19.04.2017 23:30 -1,6 C -1,6 C -1,4 C 87 % 1034,3 hPa 0,0 l/m 0,0 km/h (0 Bft) N 0 0 min 0,000 mm 0 W/m -3,5 C -1,6 C 0,0 km/h (0 Bft) 100 %
19.04.2017 23:40 -1,7 C -1,7 C -1,6 C 87 % 1034,4 hPa 0,0 l/m 0,0 km/h (0 Bft) N 0 0 min 0,000 mm 0 W/m -3,6 C -1,7 C 0,0 km/h (0 Bft) 100 %
19.04.2017 23:50 -1,8 C -1,8 C -1,7 C 87 % 1034,5 hPa 0,0 l/m 0,0 km/h (0 Bft) N 0 0 min 0,000 mm 0 W/m -3,7 C -1,8 C 0,0 km/h (0 Bft) 100 %
_ Min-Zeit 23:50 23:50 23:50 18:50 00:10 - 00:00 - - - - - 23:50 23:50 00:10 00:20
Minimum _ -1,8 C -1,8 C -1,7 C 55 % 1026,9 hPa - 0,0 km/h (0 Bft) - - - - - -3,7 C -1,8 C 0,0 km/h (0 Bft) 90 %
_ Max-Zeit 13:10 13:10 13:10 00:00 23:50 08:40 17:00 - - 08:50 13:00 12:50 11:30 13:00 16:00 00:30
Maximum _ 7,2 C 7,0 C 7,2 C 91 % 1034,5 hPa 0,2 l/m 6,7 km/h
NO (2 Bft)
- - 10 min 0,305 mm 1130 W/m 2,2 C 7,1 C 33,8 km/h
NO (5 Bft)
100 %
Durchschnitt _ 2,4 C 2,3 C 2,5 C 78 % 1030,3 hPa #0,4 l/m 0,5 km/h (0 Bft) NO - #8:00 h #1,448 mm 319 W/m -1,2 C 2,4 C 5,0 km/h (1 Bft) 99 %
PRIVATE WETTERSTATION BILLIGHEIM-ALLFELD - www.neckar-odenwald-wetter.de - Holger Sonntag